カタログに戻る

COSMOS 1251

運用中軍事LEO
NORAD 12321·PAYLOAD·🇷🇺 Russia

打ち上げ Mar 6, 1981 から Plesetsk Cosmodrome

Loading…

次のパス (今後24時間)

TLE

最新Source: Space-Track

元期: Sep 14, 2026, 14:14 UTC

1 12321U 81022B   26257.59323247  .00000001  00000-0  10075-3 0  9996
2 12321  74.0298 304.5361 0044386  13.8589  59.1726 12.56491465 88157

AllMySatでCOSMOS 1251をリアルタイム追跡

Download on the App Store